{"data":{"norad_id":64464,"epoch":"2026-09-20T23:33:03.928608Z","epoch_age_seconds":89972,"freshness":"FRESH","line1":"1 64464U 25130AC  26263.98129547  .00009595  00000+0  29470-3 0  9991","line2":"2 64464  53.1618 257.1274 0000486 351.0591   9.0403 15.34404238 70669","mean_motion":15.34404238,"eccentricity":4.86e-5,"inclination_deg":53.1618,"raan_deg":257.1274,"arg_perigee_deg":351.0591,"mean_anomaly_deg":9.0403,"bstar":0.0002947,"rev_number":7066,"period_min":93.847498875326,"perigee_km":462.35817978348,"apogee_km":463.02310823048,"semimajor_km":6840.827644007,"source":"CELESTRAK","updated_at":"2026-09-21T09:00:35.357450Z"}}